Year,Month,Day,Salinity,WTemp,R�gua,,,,,,
1998,1,1,"1,00","18,0",,,,,,,
1998,1,2,"0,00","19,0",,,,,,,
1998,1,3,"0,00","23,0",,,,,,,
1998,1,4,"3,00","23,0",,,,,,,
1998,1,5,"2,00","23,0",,,,,,,
1998,1,6,"3,00","21,0",,,,,,,
1998,1,7,"3,00","19,0",,,,,,,
1998,1,8,"2,00","20,0",,,,,,,
1998,1,9,"3,00","22,0",,,,,,,
1998,1,10,"2,00","24,0",,,,,,,
1998,1,11,"1,00","24,0",,,,,,,
1998,1,12,"2,00","27,0",,,,,,,
1998,1,13,"2,00","24,0",,,,,,,
1998,1,14,"3,00","24,0",,,,,,,
1998,1,15,"2,00","23,0",,,,,,,
1998,1,16,"1,00","22,0",,,,,,,
1998,1,17,"1,00","26,0",,,,,,,
1998,1,18,"2,00","21,0",,,,,,,
1998,1,19,"1,00","22,0",,,,,,,
1998,1,20,"0,00","25,0",,,,,,,
1998,1,21,"0,00","27,0",,,,,,,
1998,1,22,"0,00","23,0",,,,,,,
1998,1,23,"0,00","21,0",,,,,,,
1998,1,24,"0,00","24,0",,,,,,,
1998,1,25,"0,00","25,0",,,,,,,
1998,1,26,"0,00","26,0",,,,,,,
1998,1,27,"0,00","26,0",,,,,,,
1998,1,28,"0,00","22,0",,,,,,,
1998,1,29,"0,00","21,0",,,,,,,
1998,1,30,"0,00","21,0",,,,,,,
1998,1,31,"0,00","24,0",,,,,,,
1998,2,1,"0,00","24,0",,,,,,,
1998,2,2,"0,00","24,0",,,,,,,
1998,2,3,"0,00","22,0",,,,,,,
1998,2,4,"0,00","24,0",,,,,,,
1998,2,5,"0,00","23,0",,,,,,,
1998,2,6,"1,00","25,0",,,,,,,
1998,2,7,"0,00","25,0",,,,,,,
1998,2,8,"0,00","22,0",,,,,,,
1998,2,9,"0,00","21,0",,,,,,,
1998,2,10,"0,00","20,0",,,,,,,
1998,2,11,"3,00","19,0",,,,,,,
1998,2,12,"3,00","18,0",,,,,,,
1998,2,13,"3,00","21,0",,,,,,,
1998,2,14,"3,00","22,0",,,,,,,
1998,2,15,"2,00","23,0",,,,,,,
1998,2,16,"2,00","23,0",,,,,,,
1998,2,17,"2,00","23,0",,,,,,,
1998,2,18,"1,00","25,0",,,,,,,
1998,2,19,"1,00","25,0",,,,,,,
1998,2,20,"0,00","25,0",,,,,,,
1998,2,21,"1,00","25,0",,,,,,,
1998,2,22,"1,00","22,0",,,,,,,
1998,2,23,"0,00","21,0",,,,,,,
1998,2,24,"1,00","24,0",,,,,,,
1998,2,25,"0,00","23,0",,,,,,,
1998,2,26,"0,00","24,0",,,,,,,
1998,2,27,"0,00","23,0",,,,,,,
1998,2,28,"0,00","22,0",,,,,,,
1998,3,1,"0,00","22,0",,,,,,,
1998,3,2,"0,00","24,0",,,,,,,
1998,3,3,"0,00","25,0",,,,,,,
1998,3,4,"1,00","28,0",,,,,,,
1998,3,5,"2,00","28,0",,,,,,,
1998,3,6,"2,00","28,0",,,,,,,
1998,3,7,"3,00","25,0",,,,,,,
1998,3,8,"3,00","25,0",,,,,,,
1998,3,9,"0,00","26,0",,,,,,,
1998,3,10,"0,00","23,0",,,,,,,
1998,3,11,"5,00","19,0",,,,,,,
1998,3,12,"5,00","20,0",,,,,,,
1998,3,13,"7,00","20,0",,,,,,,
1998,3,14,"4,00","20,0",,,,,,,
1998,3,15,"5,00","21,0",,,,,,,
1998,3,16,"4,00","21,0",,,,,,,
1998,3,17,"2,00","21,0",,,,,,,
1998,3,18,"0,00","19,0",,,,,,,
1998,3,19,"2,00","22,0",,,,,,,
1998,3,20,"12,00","22,0",,,,,,,
1998,3,21,"0,00","22,0",,,,,,,
1998,3,22,"4,00","23,0",,,,,,,
1998,3,23,"0,00","24,0",,,,,,,
1998,3,24,"0,00","23,0",,,,,,,
1998,3,25,"6,00","17,0",,,,,,,
1998,3,26,"23,00","17,0",,,,,,,
1998,3,27,"10,00","18,0",,,,,,,
1998,3,28,"10,00","22,0",,,,,,,
1998,3,29,"7,00","19,0",,,,,,,
1998,3,30,"8,00","20,0",,,,,,,
1998,3,31,"7,00","20,0",,,,,,,
1998,4,1,"3,00","18,0",,,,,,,
1998,4,2,"4,00","18,0",,,,,,,
1998,4,3,"6,00","19,0",,,,,,,
1998,4,4,"7,00","20,0",,,,,,,
1998,4,5,"8,00","21,0",,,,,,,
1998,4,6,"7,00","22,0",,,,,,,
1998,4,7,"5,00","21,0",,,,,,,
1998,4,8,"6,00","18,0",,,,,,,
1998,4,9,"18,00","18,0",,,,,,,
1998,4,10,"10,00","20,0",,,,,,,
1998,4,11,"12,00","20,0",,,,,,,
1998,4,12,"7,00","20,0",,,,,,,
1998,4,13,"5,00","22,0",,,,,,,
1998,4,14,"4,00","22,0",,,,,,,
1998,4,15,"5,00","21,0",,,,,,,
1998,4,16,"4,00","21,0",,,,,,,
1998,4,17,"0,00","20,0",,,,,,,
1998,4,18,"3,00","18,0",,,,,,,
1998,4,19,"3,00","18,0",,,,,,,
1998,4,20,"10,00","18,0",,,,,,,
1998,4,21,"8,00","20,0",,,,,,,
1998,4,22,"5,00","20,0",,,,,,,
1998,4,23,"5,00","19,0",,,,,,,
1998,4,24,"5,00","21,0",,,,,,,
1998,4,25,"4,00","20,0",,,,,,,
1998,4,26,"5,00","19,0",,,,,,,
1998,4,27,"3,00","20,0",,,,,,,
1998,4,28,"4,00","20,0",,,,,,,
1998,4,29,"3,00","17,0",,,,,,,
1998,4,30,"3,00","18,0",,,,,,,
1998,5,1,"0,00","17,0",,,,,,,
1998,5,2,"10,00","16,0",,,,,,,
1998,5,3,"10,00","17,0",,,,,,,
1998,5,4,"10,00","18,0",,,,,,,
1998,5,5,"2,00","17,0",,,,,,,
1998,5,6,"1,00","17,0",,,,,,,
1998,5,7,"3,00","17,0",,,,,,,
1998,5,8,"2,00","19,0",,,,,,,
1998,5,9,"0,00","20,0",,,,,,,
1998,5,10,"0,00","18,0",,,,,,,
1998,5,11,"0,00","21,0",,,,,,,
1998,5,12,"0,00","19,0",,,,,,,
1998,5,13,"0,00","18,0",,,,,,,
1998,5,14,"0,00","17,0",,,,,,,
1998,5,15,"0,00","16,0",,,,,,,
1998,5,16,"0,00","16,0",,,,,,,
1998,5,17,"0,00","16,0",,,,,,,
1998,5,18,"0,00","15,0",,,,,,,
1998,5,19,"0,00","16,0",,,,,,,
1998,5,20,"0,00","17,0",,,,,,,
1998,5,21,"0,00","16,0",,,,,,,
1998,5,22,"0,00","16,0",,,,,,,
1998,5,23,"0,00","17,0",,,,,,,
1998,5,24,"0,00","17,0",,,,,,,
1998,5,25,"0,00","17,0",,,,,,,
1998,5,26,"0,00","17,0",,,,,,,
1998,5,27,"0,00","15,0",,,,,,,
1998,5,28,"3,00","15,0",,,,,,,
1998,5,29,"3,00","16,0",,,,,,,
1998,5,30,"2,00","16,0",,,,,,,
1998,5,31,"2,00",,,,,,,,
1998,6,1,"8,00","16,0",,,,,,,
1998,6,2,"0,00","14,0",,,,,,,
1998,6,3,"0,00","14,0",,,,,,,
1998,6,4,"0,00","14,0",,,,,,,
1998,6,5,"0,00","16,0",,,,,,,
1998,6,6,"0,00","16,0",,,,,,,
1998,6,7,"10,00","17,0",,,,,,,
1998,6,8,"0,00","17,0",,,,,,,
1998,6,9,"0,00","18,0",,,,,,,
1998,6,10,"0,00","15,0",,,,,,,
1998,6,11,"0,00","13,0",,,,,,,
1998,6,12,"0,00","13,0",,,,,,,
1998,6,13,"2,00","13,0",,,,,,,
1998,6,14,"3,00","14,0",,,,,,,
1998,6,15,"2,00","17,0",,,,,,,
1998,6,16,"2,00","15,0",,,,,,,
1998,6,17,"1,00","12,0",,,,,,,
1998,6,18,"13,00","12,0",,,,,,,
1998,6,19,"0,00","12,0",,,,,,,
1998,6,20,"5,00","11,0",,,,,,,
1998,6,21,"5,00","13,0",,,,,,,
1998,6,22,"4,00","12,0",,,,,,,
1998,6,23,"4,00","12,0",,,,,,,
1998,6,24,"4,00","12,0",,,,,,,
1998,6,25,"4,00","12,0",,,,,,,
1998,6,26,"5,00","13,0",,,,,,,
1998,6,27,"3,00","12,0",,,,,,,
1998,6,28,"4,00","14,0",,,,,,,
1998,6,29,"3,00","16,0",,,,,,,
1998,6,30,"2,00","16,0",,,,,,,
1998,7,1,"1,00","14,0",,,,,,,
1998,7,2,"1,00","13,0",,,,,,,
1998,7,3,"0,00","14,0",,,,,,,
1998,7,4,"3,00","16,0",,,,,,,
1998,7,5,"2,00","17,0",,,,,,,
1998,7,6,"3,00","18,0",,,,,,,
1998,7,7,"3,00","16,0",,,,,,,
1998,7,8,"3,00","13,0",,,,,,,
1998,7,9,"2,00","12,0",,,,,,,
1998,7,10,"3,00","14,0",,,,,,,
1998,7,11,"0,00","15,0",,,,,,,
1998,7,12,"2,00","15,0",,,,,,,
1998,7,13,"2,00","16,0",,,,,,,
1998,7,14,"1,00","16,0",,,,,,,
1998,7,15,"2,00","16,0",,,,,,,
1998,7,16,"2,00","15,0",,,,,,,
1998,7,17,"3,00","15,0",,,,,,,
1998,7,18,"2,00","14,0",,,,,,,
1998,7,19,"0,00","15,0",,,,,,,
1998,7,20,"0,00","16,0",,,,,,,
1998,7,21,"0,00","15,0",,,,,,,
1998,7,22,"0,00","16,0",,,,,,,
1998,7,23,"1,00","16,0",,,,,,,
1998,7,24,"1,00","16,0",,,,,,,
1998,7,25,"1,00","17,0",,,,,,,
1998,7,26,"1,00","16,0",,,,,,,
1998,7,27,"4,00","16,0",,,,,,,
1998,7,28,"4,00","15,0",,,,,,,
1998,7,29,"3,00","14,0",,,,,,,
1998,7,30,"3,00","14,0",,,,,,,
1998,7,31,"3,00","16,0",,,,,,,
1998,8,1,"1,00","16,0",,,,,,,
1998,8,2,"2,00","16,0",,,,,,,
1998,8,3,"3,00","15,0",,,,,,,
1998,8,4,"3,00","16,0",,,,,,,
1998,8,5,"4,00","16,0",,,,,,,
1998,8,6,"4,00","15,0",,,,,,,
1998,8,7,"5,00","16,0",,,,,,,
1998,8,8,"5,00","16,0",,,,,,,
1998,8,9,"0,00","18,0",,,,,,,
1998,8,10,"0,00","17,0",,,,,,,
1998,8,11,"2,00","16,0",,,,,,,
1998,8,12,"1,00","14,0",,,,,,,
1998,8,13,"0,00","15,0",,,,,,,
1998,8,14,"0,00","14,0",,,,,,,
1998,8,15,"0,00","15,0",,,,,,,
1998,8,16,"0,00","14,0",,,,,,,
1998,8,17,"0,00","17,0",,,,,,,
1998,8,18,"0,00","16,0",,,,,,,
1998,8,19,"1,00","16,0",,,,,,,
1998,8,20,"1,00","14,0",,,,,,,
1998,8,21,"0,00","13,0",,,,,,,
1998,8,22,"1,00","14,0",,,,,,,
1998,8,23,"1,00","15,0",,,,,,,
1998,8,24,"1,00","14,0",,,,,,,
1998,8,25,"2,00","14,0",,,,,,,
1998,8,26,"0,00","15,0",,,,,,,
1998,8,27,"0,00","13,0",,,,,,,
1998,8,28,"3,00","15,0",,,,,,,
1998,8,29,"2,00","15,0",,,,,,,
1998,8,30,"2,00","12,0",,,,,,,
1998,8,31,"3,00","15,0",,,,,,,
1998,9,1,"2,00","17,0",,,,,,,
1998,9,2,"0,00","17,0",,,,,,,
1998,9,3,"0,00","17,0",,,,,,,
1998,9,4,"1,00","15,0",,,,,,,
1998,9,5,"1,00","14,0",,,,,,,
1998,9,6,"0,00","14,0",,,,,,,
1998,9,7,"1,00","16,0",,,,,,,
1998,9,8,"1,00","17,0",,,,,,,
1998,9,9,"1,00","13,0",,,,,,,
1998,9,10,"0,00","15,0",,,,,,,
1998,9,11,"0,00","17,0",,,,,,,
1998,9,12,"0,00","19,0",,,,,,,
1998,9,13,"0,00","15,0",,,,,,,
1998,9,14,"0,00","12,0",,,,,,,
1998,9,15,"0,00","13,0",,,,,,,
1998,9,16,"0,00","15,0",,,,,,,
1998,9,17,"0,00","17,0",,,,,,,
1998,9,18,"0,00","15,0",,,,,,,
1998,9,19,"0,00","13,0",,,,,,,
1998,9,20,"0,00","15,0",,,,,,,
1998,9,21,"0,00","16,0",,,,,,,
1998,9,22,"0,00","16,0",,,,,,,
1998,9,23,"0,00","16,0",,,,,,,
1998,9,24,"0,00","18,0",,,,,,,
1998,9,25,"0,00","17,0",,,,,,,
1998,9,26,"0,00","17,0",,,,,,,
1998,9,27,"0,00","16,0",,,,,,,
1998,9,28,"0,00","16,0",,,,,,,
1998,9,29,"0,00","15,0",,,,,,,
1998,9,30,"0,00","16,0",,,,,,,
1998,10,1,"1,00","16,0",,,,,,,
1998,10,2,"0,00","17,0",,,,,,,
1998,10,3,"0,00","17,0",,,,,,,
1998,10,4,"1,00","20,0",,,,,,,
1998,10,5,"2,00","17,0",,,,,,,
1998,10,6,"0,00","17,0",,,,,,,
1998,10,7,"1,00","17,0",,,,,,,
1998,10,8,"1,00","18,0",,,,,,,
1998,10,9,"2,00","19,0",,,,,,,
1998,10,10,"1,00","19,0",,,,,,,
1998,10,11,"2,00","19,0",,,,,,,
1998,10,12,"1,00","18,0",,,,,,,
1998,10,13,"1,00","19,0",,,,,,,
1998,10,14,"1,00","20,0",,,,,,,
1998,10,15,"1,00","22,0",,,,,,,
1998,10,16,"1,00","20,0",,,,,,,
1998,10,17,"0,00","18,0",,,,,,,
1998,10,18,"1,00","18,0",,,,,,,
1998,10,19,"1,00","21,0",,,,,,,
1998,10,20,"1,00","23,0",,,,,,,
1998,10,21,"1,00","25,0",,,,,,,
1998,10,22,"1,00","25,0",,,,,,,
1998,10,23,"1,00","17,0",,,,,,,
1998,10,24,"9,00","17,0",,,,,,,
1998,10,25,"23,00","18,0",,,,,,,
1998,10,26,"5,00","19,0",,,,,,,
1998,10,27,"5,00","22,0",,,,,,,
1998,10,28,"5,00","21,0",,,,,,,
1998,10,29,"5,00","18,0",,,,,,,
1998,10,30,"10,00","18,0",,,,,,,
1998,10,31,"7,00","18,0",,,,,,,
1998,11,1,"10,00","18,0",,,,,,,
1998,11,2,"9,00","20,0",,,,,,,
1998,11,3,"9,00","20,0",,,,,,,
1998,11,4,"5,00","23,0",,,,,,,
1998,11,5,"4,00","24,0",,,,,,,
1998,11,6,"5,00","21,0",,,,,,,
1998,11,7,"5,00","19,0",,,,,,,
1998,11,8,"5,00","19,0",,,,,,,
1998,11,9,"5,00","20,0",,,,,,,
1998,11,10,"5,00","18,0",,,,,,,
1998,11,11,"4,00","20,0",,,,,,,
1998,11,12,"5,00","22,0",,,,,,,
1998,11,13,"5,00","25,0",,,,,,,
1998,11,14,"4,00","25,0",,,,,,,
1998,11,15,"4,00","26,0",,,,,,,
1998,11,16,"9,00","22,0",,,,,,,
1998,11,17,"5,00","18,0",,,,,,,
1998,11,18,"7,00","18,0",,,,,,,
1998,11,19,"10,00","20,0",,,,,,,
1998,11,20,"17,00","22,0",,,,,,,
1998,11,21,"24,00","23,0",,,,,,,
1998,11,22,"21,00","22,0",,,,,,,
1998,11,23,"10,00","23,0",,,,,,,
1998,11,24,"9,00","20,0",,,,,,,
1998,11,25,"11,00","21,0",,,,,,,
1998,11,26,"15,00","21,0",,,,,,,
1998,11,27,"20,00","23,0",,,,,,,
1998,11,28,"21,00","22,0",,,,,,,
1998,11,29,"25,00","22,0",,,,,,,
1998,11,30,"25,00","22,0",,,,,,,
1998,12,1,"27,00","25,0",,,,,,,
1998,12,2,"30,00","26,0",,,,,,,
1998,12,3,"25,00","22,0",,,,,,,
1998,12,4,"25,00","23,0",,,,,,,
1998,12,5,"25,00","22,0",,,,,,,
1998,12,6,"27,00","21,0",,,,,,,
1998,12,7,"25,00","25,0",,,,,,,
1998,12,8,"25,00","27,0",,,,,,,
1998,12,9,"19,00","22,0",,,,,,,
1998,12,10,"18,00","22,0",,,,,,,
1998,12,11,"16,00","21,0",,,,,,,
1998,12,12,"16,00","21,0",,,,,,,
1998,12,13,"11,00","22,0",,,,,,,
1998,12,14,"15,00","24,0",,,,,,,
1998,12,15,"15,00","22,0",,,,,,,
1998,12,16,"10,00","22,0",,,,,,,
1998,12,17,"15,00","18,0",,,,,,,
1998,12,18,"15,00","19,0",,,,,,,
1998,12,19,"23,00","22,0",,,,,,,
1998,12,20,"27,00","23,0",,,,,,,
1998,12,21,"25,00","22,0",,,,,,,
1998,12,22,"26,00","18,0",,,,,,,
1998,12,23,"25,00","19,0",,,,,,,
1998,12,24,"25,00","19,0",,,,,,,
1998,12,25,"23,00","25,0",,,,,,,
1998,12,26,"25,00","26,0",,,,,,,
1998,12,27,"20,00","24,0",,,,,,,
1998,12,28,"18,00","26,0",,,,,,,
1998,12,29,"15,00","23,0",,,,,,,
1998,12,30,"26,00","24,0",,,,,,,
1998,12,31,"30,00","25,0",,,,,,,
1999,1,1,"30,00","22,0",,,,,,,
1999,1,2,"30,00","24,0",,,,,,,
1999,1,3,"28,00","24,0",,,,,,,
1999,1,4,"30,00","22,0",,,,,,,
1999,1,5,"28,00","21,0",,,,,,,
1999,1,6,"27,00","21,0",,,,,,,
1999,1,7,"28,00","22,0",,,,,,,
1999,1,8,"25,00","23,0",,,,,,,
1999,1,9,"22,00","25,0",,,,,,,
1999,1,10,"12,00","21,0",,,,,,,
1999,1,11,"12,00","20,0",,,,,,,
1999,1,12,"15,00","21,0",,,,,,,
1999,1,13,"15,00","22,0",,,,,,,
1999,1,14,"6,00","20,0",,,,,,,
1999,1,15,"8,00","20,0",,,,,,,
1999,1,16,"11,00","22,0",,,,,,,
1999,1,17,"22,00","24,0",,,,,,,
1999,1,18,"23,00","27,0",,,,,,,
1999,1,19,"12,00","24,0",,,,,,,
1999,1,20,"15,00","26,0",,,,,,,
1999,1,21,"15,00","26,0",,,,,,,
1999,1,22,"13,00","25,0",,,,,,,
1999,1,23,"11,00","25,0",,,,,,,
1999,1,24,"12,00","27,0",,,,,,,
1999,1,25,"14,00","26,0",,,,,,,
1999,1,26,"12,00","25,0",,,,,,,
1999,1,27,"12,00","25,0",,,,,,,
1999,1,28,"24,00","22,0",,,,,,,
1999,1,29,"22,00","23,0",,,,,,,
1999,1,30,"20,00","25,0",,,,,,,
1999,1,31,"18,00","22,0",,,,,,,
1999,2,1,"30,00","21,0",,,,,,,
1999,2,2,"26,00","20,0",,,,,,,
1999,2,3,"23,00","23,0",,,,,,,
1999,2,4,"25,00","23,0",,,,,,,
1999,2,5,"26,00","23,0",,,,,,,
1999,2,6,"26,00","26,0",,,,,,,
1999,2,7,"25,00","22,0",,,,,,,
1999,2,8,"25,00","21,0",,,,,,,
1999,2,9,"21,00","23,0",,,,,,,
1999,2,10,"25,00","23,0",,,,,,,
1999,2,11,"25,00","19,0",,,,,,,
1999,2,12,"25,00","22,0",,,,,,,
1999,2,13,"26,00","23,0",,,,,,,
1999,2,14,"25,00","23,0",,,,,,,
1999,2,15,"24,00","25,0",,,,,,,
1999,2,16,"25,00","25,0",,,,,,,
1999,2,17,"15,00","25,0",,,,,,,
1999,2,18,"20,00","26,0",,,,,,,
1999,2,19,"15,00","27,0",,,,,,,
1999,2,20,"20,00","27,0",,,,,,,
1999,2,21,"12,00","25,0",,,,,,,
1999,2,22,"10,00","26,0",,,,,,,
1999,2,23,"9,00","26,0",,,,,,,
1999,2,24,"6,00","26,0",,,,,,,
1999,2,25,"5,00","26,0",,,,,,,
1999,2,26,"5,00","24,0",,,,,,,
1999,2,27,"6,00","25,0",,,,,,,
1999,2,28,"6,00","25,0",,,,,,,
1999,3,1,"13,00","27,0",,,,,,,
1999,3,2,"10,00","28,0",,,,,,,
1999,3,3,"9,00","26,0",,,,,,,
1999,3,4,"9,00","26,0",,,,,,,
1999,3,5,"13,00","26,0",,,,,,,
1999,3,6,"11,00","26,0",,,,,,,
1999,3,7,"10,00","25,0",,,,,,,
1999,3,8,"7,00","27,0",,,,,,,
1999,3,9,"10,00","29,0",,,,,,,
1999,3,10,"7,00","24,0",,,,,,,
1999,3,11,"10,00","22,0",,,,,,,
1999,3,12,"17,00","22,0",,,,,,,
1999,3,13,"19,00","23,0",,,,,,,
1999,3,14,"21,00","24,0",,,,,,,
1999,3,15,"25,00","25,0",,,,,,,
1999,3,16,"12,00","26,0",,,,,,,
1999,3,17,"11,00","26,0",,,,,,,
1999,3,18,"10,00","26,0",,,,,,,
1999,3,19,"11,00","26,0",,,,,,,
1999,3,20,"14,00","23,0",,,,,,,
1999,3,21,"15,00","23,0",,,,,,,
1999,3,22,"15,00","23,0",,,,,,,
1999,3,23,"20,00","27,0",,,,,,,
1999,3,24,"19,00","26,0",,,,,,,
1999,3,25,"13,00","21,0",,,,,,,
1999,3,26,"20,00","22,0",,,,,,,
1999,3,27,"20,00","22,0",,,,,,,
1999,3,28,"31,00","22,0",,,,,,,
1999,3,29,"27,00","20,0",,,,,,,
1999,3,30,"30,00","22,0",,,,,,,
1999,3,31,"25,00","20,0",,,,,,,
1999,4,1,"29,00","20,0",,,,,,,
1999,4,2,"32,00","18,0",,,,,,,
1999,4,3,"31,00","20,0",,,,,,,
1999,4,4,"20,00","22,0",,,,,,,
1999,4,5,"20,00","22,0",,,,,,,
1999,4,6,"15,00","18,0",,,,,,,
1999,4,7,"15,00","18,0",,,,,,,
1999,4,8,"17,00","19,0",,,,,,,
1999,4,9,"20,00","19,0",,,,,,,
1999,4,10,"25,00","20,0",,,,,,,
1999,4,11,"15,00","20,0",,,,,,,
1999,4,12,"18,00","21,0",,,,,,,
1999,4,13,"10,00","18,0",,,,,,,
1999,4,14,"18,00","19,0",,,,,,,
1999,4,15,"12,00","20,0",,,,,,,
1999,4,16,"15,00","11,0",,,,,,,
1999,4,17,"17,00","13,0",,,,,,,
1999,4,18,"31,00","15,0",,,,,,,
1999,4,19,"28,00","15,0",,,,,,,
1999,4,20,"28,00","15,0",,,,,,,
1999,4,21,"26,00","15,0",,,,,,,
1999,4,22,"25,00","18,0",,,,,,,
1999,4,23,"24,00","20,0",,,,,,,
1999,4,24,"11,00","20,0",,,,,,,
1999,4,25,"10,00","19,0",,,,,,,
1999,4,26,"10,00","19,0",,,,,,,
1999,4,27,"16,00","19,0",,,,,,,
1999,4,28,"20,00","19,0",,,,,,,
1999,4,29,"11,00","17,0",,,,,,,
1999,4,30,"6,00","17,0",,,,,,,
1999,5,1,"10,00","18,0",,,,,,,
1999,5,2,"10,00","22,0",,,,,,,
1999,5,3,"10,00","22,0",,,,,,,
1999,5,4,"12,00","21,0",,,,,,,
1999,5,5,"9,00","18,0",,,,,,,
1999,5,6,"13,00","16,0",,,,,,,
1999,5,7,"27,00","17,0",,,,,,,
1999,5,8,"26,00","17,0",,,,,,,
1999,5,9,"27,00","16,0",,,,,,,
1999,5,10,"24,00","18,0",,,,,,,
1999,5,11,"25,00","20,0",,,,,,,
1999,5,12,"19,00","16,0",,,,,,,
1999,5,13,"20,00","16,0",,,,,,,
1999,5,14,"20,00","17,0",,,,,,,
1999,5,15,"19,00","18,0",,,,,,,
1999,5,16,"16,00","18,0",,,,,,,
1999,5,17,"7,00","17,0",,,,,,,
1999,5,18,"12,00","15,0",,,,,,,
1999,5,19,"15,00","12,0",,,,,,,
1999,5,20,"15,00","15,0",,,,,,,
1999,5,21,"15,00","15,0",,,,,,,
1999,5,22,"17,00","16,0",,,,,,,
1999,5,23,"23,00","14,0",,,,,,,
1999,5,24,"23,00","13,0",,,,,,,
1999,5,25,"21,00","13,0",,,,,,,
1999,5,26,"21,00","14,0",,,,,,,
1999,5,27,"17,00","14,0",,,,,,,
1999,5,28,"24,00","15,0",,,,,,,
1999,5,29,"17,00","15,0",,,,,,,
1999,5,30,"25,00","13,0",,,,,,,
1999,5,31,"20,00","14,0",,,,,,,
1999,6,1,"22,00","13,0",,,,,,,
1999,6,2,"15,00","13,0",,,,,,,
1999,6,3,"15,00","14,0",,,,,,,
1999,6,4,"15,00","11,0",,,,,,,
1999,6,5,"20,00","11,0",,,,,,,
1999,6,6,"20,00","11,0",,,,,,,
1999,6,7,"19,00","12,0",,,,,,,
1999,6,8,"15,00","15,0",,,,,,,
1999,6,9,"15,00","15,0",,,,,,,
1999,6,10,"17,00","11,0",,,,,,,
1999,6,11,"10,00","13,0",,,,,,,
1999,6,12,"17,00","11,0",,,,,,,
1999,6,13,"10,00","11,0",,,,,,,
1999,6,14,"12,00","14,0",,,,,,,
1999,6,15,"12,00","15,0",,,,,,,
1999,6,16,"8,00","15,0",,,,,,,
1999,6,17,"10,00","14,0",,,,,,,
1999,6,18,"5,00","14,0",,,,,,,
1999,6,19,"5,00","15,0",,,,,,,
1999,6,20,"9,00","16,0",,,,,,,
1999,6,21,"6,00","17,0",,,,,,,
1999,6,22,"6,00","17,0",,,,,,,
1999,6,23,"5,00","16,0",,,,,,,
1999,6,24,"5,00","14,0",,,,,,,
1999,6,25,"6,00","15,0",,,,,,,
1999,6,26,"5,00","16,0",,,,,,,
1999,6,27,"5,00","18,0",,,,,,,
1999,6,28,"3,00","16,0",,,,,,,
1999,6,29,"5,00","12,0",,,,,,,
1999,6,30,"2,00","16,0",,,,,,,
1999,7,1,"6,00","14,0",,,,,,,
1999,7,2,"9,00","15,0",,,,,,,
1999,7,3,"7,00","12,0",,,,,,,
1999,7,4,"9,00","11,0",,,,,,,
1999,7,5,"9,00","11,0",,,,,,,
1999,7,6,"10,00","15,0",,,,,,,
1999,7,7,"10,00","15,0",,,,,,,
1999,7,8,"9,00","13,0",,,,,,,
1999,7,9,"5,00","14,0",,,,,,,
1999,7,10,"4,00","15,0",,,,,,,
1999,7,11,"5,00","17,0",,,,,,,
1999,7,12,"5,00","17,0",,,,,,,
1999,7,13,"5,00","18,0",,,,,,,
1999,7,14,"5,00","18,0",,,,,,,
1999,7,15,"5,00","17,0",,,,,,,
1999,7,16,"5,00","10,0",,,,,,,
1999,7,17,"6,00","10,0",,,,,,,
1999,7,18,"11,00","10,0",,,,,,,
1999,7,19,"10,00","13,0",,,,,,,
1999,7,20,"7,00","15,0",,,,,,,
1999,7,21,"9,00","13,0",,,,,,,
1999,7,22,"7,00","13,0",,,,,,,
1999,7,23,"7,00","13,0",,,,,,,
1999,7,24,,"15,0",,,,,,,
1999,7,25,"9,00","15,0",,,,,,,
1999,7,26,"5,00","15,0",,,,,,,
1999,7,27,"6,00","13,0",,,,,,,
1999,7,28,"5,00","14,0",,,,,,,
1999,7,29,"5,00","16,0",,,,,,,
1999,7,30,"5,00","13,0",,,,,,,
1999,7,31,"5,00","14,0",,,,,,,
1999,8,1,"7,00",,,,,,,,
1999,8,2,"7,00",,,,,,,,
1999,8,3,"3,00",,,,,,,,
1999,8,4,"5,00",,,,,,,,
1999,8,5,"3,00",,,,,,,,
1999,8,6,"4,00",,,,,,,,
1999,8,7,"4,00",,,,,,,,
1999,8,8,"15,00",,,,,,,,
1999,8,9,"7,00",,,,,,,,
1999,8,10,"10,00",,,,,,,,
1999,8,11,"7,00",,,,,,,,
1999,8,12,"5,00",,,,,,,,
1999,8,13,"5,00",,,,,,,,
1999,8,14,"13,00",,,,,,,,
1999,8,15,"13,00",,,,,,,,
1999,8,16,"17,00",,,,,,,,
1999,8,17,"20,00",,,,,,,,
1999,8,18,"15,00",,,,,,,,
1999,8,19,"13,00",,,,,,,,
1999,8,20,"13,00",,,,,,,,
1999,8,21,"12,00",,,,,,,,
1999,8,22,"7,00",,,,,,,,
1999,8,23,"2,00",,,,,,,,
1999,8,24,"6,00",,,,,,,,
1999,8,25,"5,00",,,,,,,,
1999,8,26,"6,00",,,,,,,,
1999,8,27,"9,00",,,,,,,,
1999,8,28,"6,00",,,,,,,,
1999,8,29,"6,00",,,,,,,,
1999,8,30,"6,00",,,,,,,,
1999,8,31,"6,00",,,,,,,,
1999,9,1,"1,00","15,0",,,,,,,
1999,9,2,"3,00","16,0",,,,,,,
1999,9,3,"3,00","15,0",,,,,,,
1999,9,4,"3,00","15,0",,,,,,,
1999,9,5,"4,00","17,0",,,,,,,
1999,9,6,"3,00","19,0",,,,,,,
1999,9,7,"4,00","17,0",,,,,,,
1999,9,8,"4,00","14,0",,,,,,,
1999,9,9,"4,00","14,0",,,,,,,
1999,9,10,"4,00","12,0",,,,,,,
1999,9,11,"4,00","14,0",,,,,,,
1999,9,12,"4,00","16,0",,,,,,,
1999,9,13,"4,00","19,0",,,,,,,
1999,9,14,"2,00","16,0",,,,,,,
1999,9,15,"1,00","14,0",,,,,,,
1999,9,16,"4,00","16,0",,,,,,,
1999,9,17,"3,00","17,0",,,,,,,
1999,9,18,"2,00","20,0",,,,,,,
1999,9,19,"4,00","16,0",,,,,,,
1999,9,20,"2,00","18,0",,,,,,,
1999,9,21,"2,00","17,0",,,,,,,
1999,9,22,"1,00","17,0",,,,,,,
1999,9,23,"1,00","16,0",,,,,,,
1999,9,24,"1,00","17,0",,,,,,,
1999,9,25,"1,00","18,0",,,,,,,
1999,9,26,"1,00","17,0",,,,,,,
1999,9,27,"1,00","17,0",,,,,,,
1999,9,28,"5,00","18,0",,,,,,,
1999,9,29,"5,00","13,0",,,,,,,
1999,9,30,"20,00","16,0",,,,,,,
1999,10,1,"9,00","14,0",,,,,,,
1999,10,2,"10,00","12,0",,,,,,,
1999,10,3,"12,00","11,0",,,,,,,
1999,10,4,"13,00","12,0",,,,,,,
1999,10,5,"17,00","16,0",,,,,,,
1999,10,6,"17,00","16,0",,,,,,,
1999,10,7,"13,00","16,0",,,,,,,
1999,10,8,"10,00","16,0",,,,,,,
1999,10,9,"10,00","16,0",,,,,,,
1999,10,10,"15,00","18,0",,,,,,,
1999,10,11,"11,00","18,0",,,,,,,
1999,10,12,"12,00","17,0",,,,,,,
1999,10,13,"8,00","18,0",,,,,,,
1999,10,14,"1,00","16,0",,,,,,,
1999,10,15,"1,00","20,0",,,,,,,
1999,10,16,"4,00","18,0",,,,,,,
1999,10,17,"5,00","20,0",,,,,,,
1999,10,18,"5,00","22,0",,,,,,,
1999,10,19,"4,00","21,0",,,,,,,
1999,10,20,"4,00","21,0",,,,,,,
1999,10,21,"6,00","20,0",,,,,,,
1999,10,22,"0,00","20,0",,,,,,,
1999,10,23,"0,00","19,0",,,,,,,
1999,10,24,"0,00","19,0",,,,,,,
1999,10,25,"0,00","20,0",,,,,,,
1999,10,26,"1,00","21,0",,,,,,,
1999,10,27,"0,00","22,0",,,,,,,
1999,10,28,"0,00","24,0",,,,,,,
1999,10,29,"0,00","21,0",,,,,,,
1999,10,30,"0,00","19,0",,,,,,,
1999,10,31,"0,00","19,0",,,,,,,
1999,11,1,"0,00","20,0",,,,,,,
1999,11,2,"0,00","19,0",,,,,,,
1999,11,3,"0,00","20,0",,,,,,,
1999,11,4,"6,00","16,0",,,,,,,
1999,11,5,"7,00","18,0",,,,,,,
1999,11,6,"15,00","21,0",,,,,,,
1999,11,7,"22,00","21,0",,,,,,,
1999,11,8,"25,00","19,0",,,,,,,
1999,11,9,"26,00","16,0",,,,,,,
1999,11,10,"24,00","18,0",,,,,,,
1999,11,11,"27,00","20,0",,,,,,,
1999,11,12,"21,00","23,0",,,,,,,
1999,11,13,"15,00","21,0",,,,,,,
1999,11,14,"15,00","22,0",,,,,,,
1999,11,15,"7,00","21,0",,,,,,,
1999,11,16,"7,00","21,0",,,,,,,
1999,11,17,"5,00","22,0",,,,,,,
1999,11,18,"7,00","22,0",,,,,,,
1999,11,19,"8,00","22,0",,,,,,,
1999,11,20,"1,00","22,0",,,,,,,
1999,11,21,"10,00","21,0",,,,,,,
1999,11,22,"9,00","21,0",,,,,,,
1999,11,23,"17,00","24,0",,,,,,,
1999,11,24,"26,00","22,0",,,,,,,
1999,11,25,"18,00","22,0",,,,,,,
1999,11,26,"23,00","21,0",,,,,,,
1999,11,27,"23,00","21,0",,,,,,,
1999,11,28,"20,00","22,0",,,,,,,
1999,11,29,"22,00","25,0",,,,,,,
1999,11,30,"25,00","25,0",,,,,,,
1999,12,1,"15,00","24,0",,,,,,,
1999,12,2,"12,00","25,0",,,,,,,
1999,12,3,"12,00","23,0",,,,,,,
1999,12,4,"10,00","24,0",,,,,,,
1999,12,5,"25,00","22,0",,,,,,,
1999,12,6,"25,00","19,0",,,,,,,
1999,12,7,"30,00","20,0",,,,,,,
1999,12,8,"30,00","21,0",,,,,,,
1999,12,9,"30,00","23,0",,,,,,,
1999,12,10,"30,00","22,0",,,,,,,
1999,12,11,"22,00","23,0",,,,,,,
1999,12,12,"11,00","23,0",,,,,,,
1999,12,13,"16,00","22,0",,,,,,,
1999,12,14,"18,00","23,0",,,,,,,
1999,12,15,"11,00","22,0",,,,,,,
1999,12,16,"15,00","22,0",,,,,,,
1999,12,17,"21,00","22,0",,,,,,,
1999,12,18,"27,00","23,0",,,,,,,
1999,12,19,"25,00","25,0",,,,,,,
1999,12,20,"25,00","23,0",,,,,,,
1999,12,21,"25,00","25,0",,,,,,,
1999,12,22,"25,00","21,0",,,,,,,
1999,12,23,"30,00","21,0",,,,,,,
1999,12,24,"30,00","24,0",,,,,,,
1999,12,25,"24,00","25,0",,,,,,,
1999,12,26,"20,00","27,0",,,,,,,
1999,12,27,"23,00","30,0",,,,,,,
1999,12,28,"14,00","23,0",,,,,,,
1999,12,29,"18,00","22,0",,,,,,,
1999,12,30,"17,00","22,0",,,,,,,
1999,12,31,"16,00","22,0",,,,,,,
2000,1,1,"17,00","22,0",,,,,,,
2000,1,2,"22,00","23,0",,,,,,,
2000,1,3,"25,00","23,0",,,,,,,
2000,1,4,"25,00","23,0",,,,,,,
2000,1,5,"23,00","24,0",,,,,,,
2000,1,6,"25,00","24,0",,,,,,,
2000,1,7,"32,00","23,0",,,,,,,
2000,1,8,"28,00","25,0",,,,,,,
2000,1,9,"25,00","27,0",,,,,,,
2000,1,10,"25,00","27,0",,,,,,,
2000,1,11,"22,00","28,0",,,,,,,
2000,1,12,"22,00","26,0",,,,,,,
2000,1,13,"27,00","26,0",,,,,,,
2000,1,14,"26,00","26,0",,,,,,,
2000,1,15,"25,00","25,0",,,,,,,
2000,1,16,"26,00","28,0",,,,,,,